Flag for Germany Weather past 2 weeks in Dortmund, North Rhine-Westphalia, Germany

Now
39 °F

Scattered showers. Clear.


Feels Like: 30 °F
Forecast: 38 / 43 °F
Wind: 18 mph from West

Location: Dortmund / Wickede

Current Time: Mar 31, 2015 at 11:18:04 PM

Latest Report: Mar 31, 2015 at 10:50 PM


Visibility: N/A

Pressure: 29.74 "Hg

Humidity: 70%

Dew point: 30 °F

Location of DortmundLocation

Historic Weather in Dortmund — Graph

°F

Dortmund temperature yesterday

Maximum temperature yesterday: 46 °F (at 12:20 PM)
Minimum temperature yesterday: 39 °F (at 2:50 PM)
Average temperature yesterday: 43 °F

Past Weeks' High & Low Weather Summary

 TemperatureHumidityPressure
High61 °F (Mar 17, 2:50 PM)93% (Mar 19, 5:20 AM)30.36 "Hg (Mar 19, 5:20 AM)
Low28 °F (Mar 23, 5:20 AM)39% (Mar 17, 3:20 PM)29.21 "Hg (Mar 29, 7:20 PM)
Average44 °F74%29.94 "Hg
* Reported Mar 16 9:20 PM — Mar 31 10:20 PM, Dortmund, Weather by CustomWeather, © 2015

Note: Actual official high and low records may vary slightly from our data, if they occured in-between our weather recording intervals... More about our weather records

Advertising

Dortmund weather history for previous 24 hours

 ConditionsComfort  
Time TempWeatherWind HumidityBarometerVisibility
10:20 PM
Tue, Mar 31
37 °FSprinkles. Clear.16 mph81%29.74 "HgN/A
9:50 PM39 °FSprinkles. Partly cloudy.20 mph75%29.71 "HgN/A
9:20 PM43 °FScattered showers. Passing clouds.16 mph61%29.71 "HgN/A
8:50 PM43 °FSprinkles. Broken clouds.17 mph61%29.71 "HgN/A
8:20 PM45 °FScattered showers. Clear.20 mph57%29.68 "HgN/A
7:50 PM45 °FScattered showers. Scattered clouds.18 mph57%29.68 "HgN/A
7:20 PM45 °FSprinkles. Partly sunny.29 mph66%29.68 "HgN/A
6:50 PM46 °FScattered showers. Partly sunny.20 mph57%29.65 "HgN/A
6:20 PM46 °FSprinkles. Scattered clouds.17 mph50%29.62 "HgN/A
5:50 PM48 °FScattered showers. Clear.21 mph43%29.62 "HgN/A
5:20 PM46 °FScattered showers. Scattered clouds.25 mph50%29.62 "HgN/A
4:50 PM46 °FSprinkles. Scattered clouds.23 mph62%29.59 "HgN/A
4:20 PM48 °FScattered showers. Scattered clouds.25 mph50%29.56 "HgN/A
3:50 PM48 °FSprinkles. Scattered clouds.23 mph50%29.53 "HgN/A
3:20 PM48 °FScattered showers. Partly sunny.20 mph58%29.53 "HgN/A
2:50 PM48 °FScattered showers. Scattered clouds.29 mph54%29.50 "HgN/A
2:20 PM50 °FBroken clouds.25 mph50%29.47 "HgN/A
1:50 PM48 °FPartly sunny.23 mph62%29.45 "HgN/A
1:20 PM46 °FScattered clouds.25 mph71%29.42 "HgN/A
12:50 PM46 °FPartly sunny.24 mph71%29.42 "HgN/A
12:20 PM48 °FLight rain. Partly sunny.21 mph62%29.39 "HgN/A
11:50 AM50 °FLight rain. Partly sunny.26 mph58%29.36 "HgN/A
11:20 AM50 °FLight rain. Partly sunny.25 mph58%29.36 "HgN/A
10:50 AM48 °FPartly sunny.25 mph66%29.33 "HgN/A
10:20 AM48 °FDrizzle. Partly sunny.25 mph71%29.33 "HgN/A
9:50 AM48 °FPartly sunny.24 mph76%29.30 "HgN/A
9:20 AM46 °FLight rain. Scattered clouds.24 mph76%29.27 "HgN/A
8:50 AM48 °FRain. Partly sunny.22 mph82%29.24 "Hg1 mi
8:20 AM50 °FLight rain. Partly sunny.29 mph82%29.21 "HgN/A
7:50 AM50 °FRain. Passing clouds.30 mph82%29.21 "Hg3 mi
7:20 AM50 °FLight rain. Passing clouds.28 mph82%29.21 "Hg5 mi
6:50 AM50 °FLight rain. Passing clouds.32 mph82%29.21 "Hg6 mi
6:20 AM50 °FLight rain. Passing clouds.30 mph88%29.21 "Hg5 mi
5:50 AM50 °FRain. Passing clouds.31 mph88%29.21 "Hg4 mi
5:20 AM50 °FRain. Passing clouds.32 mph88%29.21 "Hg3 mi
Weather by CustomWeather, © 2015

See weather overviewHow to use our weather pages